Home   Weather   Kongsvinger   Past weeks

Flag for Norway Past Weather in Kongsvinger, Norway — Yesterday and Last 2 Weeks

Now
25 °F

Sleet. Overcast.


Feels Like: 25 °F
Forecast: 28 / 34 °F
Wind: No wind

Location: Oslo Gardermoen Airport

Current Time: Jan 25, 2017 at 2:25:48 am

Latest Report: Jan 25, 2017 at 1:50 am


Visibility: 2 mi

Pressure: 30.15 "Hg

Humidity: 93%

Dew Point: 23 °F

Location of KongsvingerLocation

Past Weather in Kongsvinger — Graph

°F

Kongsvinger Temperature Yesterday

Maximum temperature yesterday: 23 °F (at 12:50 pm)
Minimum temperature yesterday: 16 °F (at 1:50 am)
Average temperature yesterday: 20 °F

High & Low Weather Summary for the Past Weeks

 TemperatureHumidityPressure
High48 °F (Jan 19, 1:20 pm)100% (Jan 10, 2:20 am)30.39 "Hg (Jan 10, 2:20 am)
Low12 °F (Jan 15, 10:50 pm)53% (Jan 19, 6:50 pm)28.50 "Hg (Jan 11, 4:20 pm)
Average27 °F85%29.84 "Hg
* Reported Jan 10 12:20 am — Jan 25 12:50 am, Kongsvinger, Weather by CustomWeather, © 2017

Note: Actual official high and low records may vary slightly from our data, if they occured in-between our weather recording intervals... More about our weather records

Advertising

Kongsvinger Weather History for the Previous 24 Hours

Scroll right to see more
 ConditionsComfort  
Time TempWeatherWind HumidityBarometerVisibility
12:50 am
Wed, Jan 25
25 °FIce fog.2 mph93%30.15 "Hg2 mi
12:20 am23 °FIce fog.1 mph100%30.15 "Hg1 mi
11:50 pm
Tue, Jan 24
23 °FIce fog.No wind100%30.15 "Hg2 mi
11:20 pm23 °FPassing clouds.No wind100%30.15 "Hg4 mi
10:50 pm23 °FIce fog.1 mph93%30.15 "Hg2 mi
10:20 pm23 °FIce fog.1 mph100%30.15 "Hg2 mi
9:50 pm23 °FIce fog.No wind93%30.15 "Hg2 mi
9:20 pm23 °FIce fog.No wind93%30.15 "Hg3 mi
8:50 pm23 °FPassing clouds.1 mph93%30.15 "Hg4 mi
8:20 pm23 °FPassing clouds.No wind93%30.15 "Hg6 mi
7:50 pm23 °FPassing clouds.No wind93%30.15 "Hg4 mi
7:20 pm21 °FPassing clouds.1 mph93%30.12 "Hg4 mi
6:50 pm23 °FPassing clouds.6 mph93%30.12 "Hg4 mi
6:20 pm23 °FPassing clouds.6 mph100%30.12 "Hg5 mi
5:50 pm23 °FFog.6 mph93%30.12 "Hg5 mi
5:20 pm21 °FFog.2 mph93%30.12 "Hg5 mi
4:50 pm21 °FFog.2 mph93%30.12 "Hg4 mi
4:20 pm21 °FFog.2 mph93%30.12 "Hg4 mi
3:50 pm23 °FFog.1 mph93%30.12 "Hg4 mi
3:20 pm23 °FFog.No wind93%30.15 "Hg4 mi
2:50 pm23 °FFog.No wind93%30.15 "Hg4 mi
2:20 pm23 °FFog.No wind93%30.12 "Hg4 mi
1:50 pm23 °FFog.No wind93%30.12 "Hg4 mi
1:20 pm23 °FFog.No wind93%30.15 "Hg4 mi
12:50 pm23 °FFog.No wind93%30.15 "Hg4 mi
12:20 pm21 °FCold.No wind93%30.15 "Hg3 mi
11:50 am21 °FCold.No wind93%30.15 "Hg1 mi
11:20 am19 °FCold.No wind93%30.15 "Hg1 mi
10:50 am19 °FIce fog.No wind93%30.15 "Hg0 mi
10:20 am18 °FIce fog.No wind93%30.15 "Hg0 mi
9:50 am18 °FIce fog.No wind93%30.15 "Hg0 mi
9:20 am18 °FCold.No wind93%30.15 "Hg0 mi
8:50 am18 °FIce fog.No wind93%30.15 "Hg0 mi
8:20 am19 °FIce fog.No wind93%30.12 "Hg0 mi
7:50 am16 °FCold.No wind93%30.12 "Hg1 mi
7:20 am16 °FIce fog.No wind93%30.12 "Hg1 mi
6:50 am16 °FIce fog.1 mph93%30.12 "Hg1 mi
6:20 am18 °FIce fog.No wind93%30.12 "Hg0 mi
5:50 am18 °FIce fog.No wind93%30.09 "Hg0 mi
5:20 am16 °FIce fog.No wind93%30.09 "Hg1 mi
4:50 am16 °FIce fog.No wind93%30.09 "Hg0 mi
4:20 am16 °FIce fog.3 mph86%30.09 "Hg2 mi
3:50 am16 °FCold.2 mph93%30.09 "Hg4 mi
3:20 am16 °FCold.No wind93%30.09 "HgN/A
2:50 am16 °FPassing clouds.2 mph93%30.09 "HgN/A
2:20 am18 °FFog.1 mph86%30.09 "HgN/A
Weather by CustomWeather, © 2017

See weather overviewHow to use our weather pages